AF1HS Weather Reports


Display with metric or nautical units.
time (UTC)temp
F
wind
direction
speed
MPH
gust
MPH
rain 1hr
in
rain 24hr
in
rain mn
in
humidity
%
barometer
mb
20170527133558 63 329 5.0 8.0 0.00 0.12 0.00 64 1008.0
20170527133058 63 345 6.0 8.0 0.00 0.12 0.00 65 1008.0
20170527132604 62 353 7.0 12.0 0.00 0.12 0.00 66 1008.0
20170527132105 62 338 6.0 13.0 0.00 0.12 0.00 66 1008.0
20170527131557 63 2 6.0 13.0 0.00 0.12 0.00 66 1008.0
20170527131102 63 10 7.0 10.0 0.00 0.12 0.00 65 1008.0
20170527130602 63 346 7.0 12.0 0.00 0.12 0.00 68 1008.0
20170527130056 63 353 7.0 12.0 0.00 0.12 0.00 66 1008.0
20170527125557 64 347 5.0 10.0 0.00 0.12 0.00 67 1008.0
20170527125100 64 344 5.0 8.0 0.00 0.12 0.00 67 1008.0
20170527124559 65 359 4.0 8.0 0.00 0.12 0.00 67 1008.0
20170527124106 64 351 4.0 8.0 0.00 0.12 0.00 70 1008.0
20170527123559 64 335 5.0 8.0 0.00 0.12 0.00 69 1008.0
20170527123059 64 321 5.0 8.0 0.00 0.12 0.00 71 1008.0
20170527122556 63 344 5.0 6.0 0.00 0.12 0.00 79 1008.0
20170527122104 62 10 3.0 7.0 0.00 0.12 0.00 100 1008.0
20170527121601 61 355 3.0 6.0 0.00 0.12 0.00 100 1008.0
20170527121100 59 0 1.0 6.0 0.00 0.12 0.00 100 1008.0
20170527120649 57 334 2.0 3.0 0.00 0.12 0.00 100 1008.0
20170527120054 56 314 2.0 5.0 0.00 0.12 0.00 100 1008.0
20170527115652 56 305 1.0 5.0 0.00 0.12 0.00 100 1008.0
20170527115058 56 305 0.0 3.0 0.00 0.12 0.00 100 1008.0
20170527114558 56 305 0.0 2.0 0.00 0.12 0.00 100 1008.0
20170527114056 56 305 0.0 0.0 0.00 0.12 0.00 100 1008.0
20170527113600 56 305 0.0 0.0 0.00 0.16 0.00 100 1008.0
20170527113102 56 305 0.0 0.0 0.00 0.16 0.00 100 1008.0
20170527112556 55 305 0.0 0.0 0.00 0.16 0.00 100 1008.0
20170527112059 55 305 0.0 0.0 0.00 0.16 0.00 100 1008.0
20170527111557 55 305 0.0 0.0 0.00 0.16 0.00 100 1008.0
20170527111100 55 305 0.0 0.0 0.00 0.16 0.00 100 1008.0
20170527110600 55 305 0.0 0.0 0.00 0.16 0.00 100 1008.0
20170527110100 55 305 0.0 0.0 0.00 0.16 0.00 100 1008.0
20170527105556 55 305 0.0 0.0 0.00 0.16 0.00 100 1008.0
20170527105057 54 305 0.0 0.0 0.00 0.16 0.00 100 1008.0
20170527104556 54 305 0.0 0.0 0.00 0.16 0.00 100 1008.0
20170527104102 54 305 0.0 0.0 0.00 0.16 0.00 100 1008.0
20170527103556 54 305 0.0 3.0 0.00 0.16 0.00 100 1008.0
20170527102559 54 305 0.0 0.0 0.00 0.16 0.00 100 1008.0
20170527102100 54 305 0.0 0.0 0.00 0.16 0.00 100 1008.0
20170527101556 54 305 0.0 0.0 0.00 0.16 0.00 100 1007.4
20170527101100 54 305 0.0 0.0 0.00 0.16 0.00 100 1007.0
20170527100602 54 305 0.0 0.0 0.00 0.16 0.00 100 1007.0
20170527100100 54 305 0.0 0.0 0.00 0.16 0.00 100 1007.0
20170527095555 54 305 0.0 0.0 0.00 0.16 0.00 100 1007.0
20170527095057 54 305 0.0 0.0 0.00 0.16 0.00 100 1007.0
20170527094558 53 305 0.0 0.0 0.00 0.16 0.00 100 1007.0
20170527094059 53 305 0.0 0.0 0.00 0.16 0.00 100 1007.0
20170527093555 53 305 0.0 0.0 0.00 0.16 0.00 100 1007.0
20170527093102 53 305 0.0 0.0 0.00 0.16 0.00 100 1007.0
20170527092556 53 305 0.0 0.0 0.00 0.16 0.00 100 1007.0
20170527092059 53 305 0.0 0.0 0.00 0.16 0.00 100 1007.0
20170527091556 53 305 0.0 0.0 0.00 0.16 0.00 100 1006.3
20170527091057 54 305 0.0 0.0 0.00 0.16 0.00 100 1006.0
20170527090557 54 305 0.0 0.0 0.00 0.16 0.00 100 1006.0
20170527090102 54 305 0.0 0.0 0.00 0.16 0.00 100 1006.6
20170527085555 54 305 0.0 0.0 0.00 0.20 0.00 100 1007.0
20170527085057 54 305 0.0 0.0 0.00 0.20 0.00 100 1007.0
20170527084602 54 305 0.0 0.0 0.00 0.20 0.00 100 1006.4
20170527084101 54 305 0.0 0.0 0.00 0.20 0.00 100 1006.0
20170527083557 54 305 0.0 0.0 0.00 0.20 0.00 100 1006.0
20170527083100 54 305 0.0 0.0 0.00 0.20 0.00 100 1006.0
20170527082557 53 305 0.0 0.0 0.00 0.24 0.00 100 1006.0
20170527082059 53 305 0.0 0.0 0.00 0.24 0.00 100 1006.0
20170527081558 53 305 0.0 0.0 0.00 0.24 0.00 100 1006.0
20170527081100 53 305 0.0 0.0 0.00 0.24 0.00 100 1006.0
20170527080558 53 305 0.0 0.0 0.00 0.24 0.00 100 1006.0
20170527080055 53 305 0.0 0.0 0.00 0.28 0.00 100 1006.0
20170527075556 54 305 0.0 0.0 0.00 0.28 0.00 100 1006.0
20170527075103 54 305 0.0 0.0 0.00 0.28 0.00 100 1006.0
20170527074557 54 305 0.0 0.0 0.00 0.28 0.00 100 1006.0
20170527074059 54 305 0.0 0.0 0.00 0.35 0.00 100 1006.0
20170527073557 55 305 0.0 0.0 0.00 0.35 0.00 100 1006.0
20170527073057 55 305 0.0 0.0 0.00 0.35 0.00 100 1006.0
20170527072557 55 305 0.0 0.0 0.00 0.35 0.00 100 1006.0
20170527072106 55 305 0.0 0.0 0.00 0.35 0.00 100 1006.0
20170527071600 55 305 0.0 0.0 0.00 0.35 0.00 100 1006.0
20170527071152 55 305 0.0 2.0 0.00 0.35 0.00 100 1006.0
20170527070558 55 305 0.0 2.0 0.00 0.35 0.00 100 1006.0
20170527070055 55 305 0.0 2.0 0.00 0.35 0.00 100 1006.0
20170527065557 55 305 0.0 2.0 0.00 0.35 0.00 100 1006.0
20170527065100 55 305 0.0 0.0 0.00 0.35 0.00 100 1006.0
20170527064559 55 305 0.0 0.0 0.00 0.35 0.00 100 1006.0
20170527064102 55 305 0.0 0.0 0.00 0.35 0.00 100 1006.0
20170527063556 55 305 0.0 0.0 0.00 0.35 0.00 100 1006.0
20170527063104 55 305 0.0 3.0 0.00 0.35 0.00 100 1006.0
20170527062604 55 306 1.0 3.0 0.00 0.35 0.00 100 1006.0
20170527062104 55 310 0.0 3.0 0.00 0.35 0.00 100 1006.0
20170527061601 55 310 0.0 3.0 0.00 0.35 0.00 100 1006.0
20170527061059 55 313 1.0 3.0 0.00 0.35 0.00 100 1006.0
20170527060603 55 321 2.0 6.0 0.00 0.35 0.00 100 1006.0
20170527060059 55 312 1.0 6.0 0.00 0.35 0.00 100 1006.0
20170527055557 55 314 3.0 6.0 0.00 0.35 0.00 100 1006.0
20170527055106 55 327 1.0 6.0 0.00 0.35 0.00 100 1006.0
20170527054600 55 317 1.0 5.0 0.00 0.39 0.00 100 1005.4
20170527054105 55 306 1.0 5.0 0.00 0.39 0.00 100 1005.0
20170527053604 55 290 1.0 6.0 0.00 0.39 0.00 100 1005.0
20170527053101 55 301 0.0 6.0 0.00 0.39 0.00 100 1005.0
20170527052603 56 284 1.0 5.0 0.00 0.39 0.00 100 1005.0
20170527052101 56 287 2.0 5.0 0.00 0.43 0.00 100 1005.0
20170527051559 56 312 2.0 6.0 0.00 0.43 0.00 100 1005.0
20170527051101 56 302 1.0 6.0 0.00 0.43 0.00 100 1005.0
20170527050556 56 310 1.0 5.0 0.00 0.43 0.00 100 1005.0
20170527050056 56 314 1.0 5.0 0.00 0.43 0.00 100 1005.0
20170527045557 56 303 2.0 3.0 0.00 0.47 0.00 100 1005.0
20170527045104 56 302 1.0 3.0 0.00 0.47 0.00 100 1005.0
20170527044559 56 290 1.0 3.0 0.00 0.51 0.00 100 1005.0
20170527044059 56 290 0.0 3.0 0.00 0.51 0.00 100 1005.0
20170527043554 57 290 0.0 0.0 0.00 0.51 0.00 100 1005.0
20170527043101 57 290 0.0 0.0 0.00 0.51 0.00 100 1005.0
20170527042556 57 290 0.0 0.0 0.00 0.55 0.00 100 1005.0
20170527042056 57 290 0.0 0.0 0.00 0.55 0.00 100 1005.0
20170527041517 57 290 0.0 0.0 0.00 0.59 0.00 100 1005.0
20170527041020 57 290 0.0 0.0 0.00 0.59 0.00 100 1005.0
20170527040555 57 290 0.0 0.0 0.00 0.59 0.00 100 1005.0
20170527040055 57 290 0.0 0.0 0.00 0.59 0.00 100 1005.0
20170527035556 58 290 0.0 0.0 0.00 0.59 0.59 100 1005.0
20170527035059 58 290 0.0 2.0 0.00 0.63 0.59 100 1005.0
20170527034600 58 290 0.0 0.0 0.00 0.63 0.59 100 1005.0
20170527034058 58 290 0.0 3.0 0.00 0.67 0.59 100 1005.0
20170527033650 58 290 1.0 3.0 0.00 0.67 0.59 100 1005.0
20170527033104 58 290 1.0 3.0 0.00 0.67 0.59 100 1005.0
20170527032558 58 290 1.0 3.0 0.00 0.71 0.59 100 1005.0
20170527032059 58 290 1.0 3.0 0.00 0.71 0.59 100 1005.0
20170527031554 58 290 0.0 2.0 0.00 0.71 0.59 100 1005.0
20170527031105 58 290 0.0 0.0 0.00 0.71 0.59 100 1005.0
20170527030558 58 290 0.0 0.0 0.00 0.71 0.59 100 1005.0
20170527030100 58 290 0.0 0.0 0.00 0.71 0.59 100 1005.0
20170527025601 58 290 0.0 0.0 0.00 0.71 0.59 100 1005.0
20170527025058 58 290 0.0 2.0 0.00 0.71 0.59 100 1005.0
20170527024556 58 290 0.0 5.0 0.00 0.71 0.59 100 1004.4
20170527024106 58 288 1.0 6.0 0.00 0.71 0.59 100 1004.0
20170527023601 58 311 2.0 6.0 0.00 0.71 0.59 100 1004.0
20170527023100 58 305 1.0 6.0 0.00 0.71 0.59 100 1004.0
20170527022604 58 311 2.0 6.0 0.00 0.71 0.59 100 1004.0
20170527022106 58 300 3.0 6.0 0.00 0.71 0.59 100 1004.0
20170527021559 58 303 2.0 6.0 0.00 0.71 0.59 100 1004.0
20170527021101 58 283 1.0 6.0 0.00 0.71 0.59 100 1004.0
20170527020602 58 319 0.0 3.0 0.00 0.71 0.59 100 1004.0
20170527020101 58 319 0.0 3.0 0.00 0.71 0.59 100 1004.0
20170527015557 58 319 0.0 3.0 0.00 0.71 0.59 100 1004.0
20170527015102 58 319 0.0 2.0 0.00 0.71 0.59 100 1004.0
20170527014556 58 319 0.0 2.0 0.00 0.71 0.59 100 1004.0
20170527014058 58 319 0.0 2.0 0.00 0.71 0.59 100 1004.0
20170527013600 58 319 0.0 2.0 0.00 0.71 0.59 100 1004.0
20170527013102 59 319 0.0 2.0 0.00 0.71 0.59 100 1003.4
20170527012558 59 319 0.0 3.0 0.00 0.71 0.59 100 1003.0
20170527012155 59 319 1.0 3.0 0.00 0.71 0.59 100 1003.0
20170527011557 59 318 0.0 5.0 0.00 0.71 0.59 100 1003.0
20170527011102 59 308 0.0 5.0 0.00 0.71 0.59 100 1003.0
20170527010601 59 299 0.0 3.0 0.00 0.71 0.59 100 1003.0
20170527010105 59 299 1.0 3.0 0.00 0.71 0.59 100 1003.0
20170527005558 59 302 1.0 3.0 0.00 0.71 0.59 100 1003.0
20170527005105 60 305 1.0 3.0 0.00 0.71 0.59 100 1003.0
20170527004558 60 317 2.0 6.0 0.00 0.71 0.59 100 1003.0
20170527004059 60 310 3.0 6.0 0.00 0.71 0.59 100 1003.0
20170527003600 60 305 5.0 8.0 0.00 0.71 0.59 100 1003.0
20170527003101 60 327 6.0 12.0 0.00 0.71 0.59 100 1002.3
20170527002603 60 322 5.0 12.0 0.00 0.71 0.59 100 1002.0
20170527002100 61 329 6.0 9.0 0.00 0.71 0.59 100 1002.0
20170527001558 61 315 5.0 12.0 0.04 0.71 0.59 100 1002.0
20170527001102 61 331 5.0 10.0 0.04 0.71 0.59 100 1002.0
20170527000559 62 321 2.0 5.0 0.08 0.71 0.59 100 1002.0
20170527000102 62 323 1.0 3.0 0.08 0.71 0.59 100 1002.0
20170526235557 62 329 0.0 5.0 0.08 0.71 0.59 100 1002.0
20170526235102 62 274 0.0 3.0 0.08 0.71 0.59 100 1002.0
20170526234600 62 254 0.0 2.0 0.08 0.71 0.59 100 1002.0
20170526234103 62 250 0.0 2.0 0.08 0.71 0.59 100 1002.0
20170526233557 62 250 1.0 3.0 0.08 0.71 0.59 100 1002.0
20170526233105 62 250 0.0 3.0 0.08 0.71 0.59 100 1002.0
20170526232602 63 250 0.0 3.0 0.08 0.75 0.59 100 1002.0
20170526232104 63 250 0.0 2.0 0.08 0.75 0.59 100 1002.0
20170526231559 63 245 0.0 6.0 0.04 0.71 0.55 100 1001.3
20170526231059 63 312 3.0 8.0 0.04 0.71 0.55 100 1001.0
20170526230559 64 355 6.0 8.0 0.00 0.67 0.51 100 1001.0
20170526230101 64 357 2.0 6.0 0.00 0.67 0.51 98 1000.3
20170526225553 64 2 0.0 2.0 0.00 0.67 0.51 95 1000.0
20170526225102 65 2 0.0 2.0 0.00 0.67 0.51 94 1000.0
20170526224558 65 2 0.0 2.0 0.00 0.67 0.51 94 1000.0
20170526224059 65 2 0.0 0.0 0.00 0.67 0.51 94 1000.0
20170526223556 65 2 0.0 3.0 0.00 0.67 0.51 95 1000.0
20170526223103 65 2 1.0 3.0 0.00 0.67 0.51 94 1000.0
20170526222605 65 2 1.0 3.0 0.00 0.67 0.51 91 1000.0
20170526221557 65 2 2.0 3.0 0.00 0.67 0.51 88 1000.0
20170526221058 66 2 0.0 0.0 0.00 0.67 0.51 86 1000.0
20170526220604 66 2 0.0 3.0 0.00 0.67 0.51 85 1000.0
20170526220058 66 2 1.0 3.0 0.00 0.67 0.51 85 1000.0
20170526215558 66 2 0.0 3.0 0.00 0.67 0.51 83 1000.0
20170526215102 66 2 1.0 3.0 0.00 0.67 0.51 83 1000.0
20170526214559 66 2 0.0 3.0 0.00 0.67 0.51 86 1000.0
20170526214102 66 2 0.0 3.0 0.00 0.67 0.51 85 1000.0
20170526213558 66 2 0.0 3.0 0.00 0.67 0.51 85 1000.0
20170526213059 66 2 0.0 0.0 0.00 0.67 0.51 85 1000.0
20170526212559 66 2 0.0 0.0 0.00 0.67 0.51 84 1000.0
20170526212059 66 2 0.0 0.0 0.00 0.67 0.51 82 1000.0
20170526211559 66 2 0.0 2.0 0.00 0.67 0.51 81 999.4
20170526211059 66 0 0.0 2.0 0.00 0.67 0.51 81 999.0
20170526210600 66 357 0.0 3.0 0.00 0.67 0.51 81 999.0
20170526210102 66 357 0.0 0.0 0.00 0.67 0.51 80 999.0
20170526205600 66 357 0.0 0.0 0.00 0.67 0.51 78 999.0
20170526205058 67 357 0.0 3.0 0.00 0.71 0.51 77 999.0
20170526204601 67 357 0.0 3.0 0.00 0.71 0.51 76 999.0
20170526204058 67 357 0.0 3.0 0.00 0.71 0.51 76 999.0
20170526203555 67 357 1.0 3.0 0.00 0.71 0.51 76 999.0
20170526203100 67 357 2.0 6.0 0.00 0.75 0.51 74 999.0
20170526202600 67 357 2.0 6.0 0.00 0.75 0.51 74 999.0
20170526202102 67 356 3.0 6.0 0.00 0.75 0.51 73 999.0
20170526201559 67 344 3.0 6.0 0.00 0.75 0.51 73 999.0
20170526201058 67 9 3.0 6.0 0.00 0.75 0.51 74 999.0
20170526200559 67 326 3.0 6.0 0.00 0.75 0.51 73 999.0
20170526200102 67 326 3.0 8.0 0.00 0.75 0.51 72 999.0
20170526195559 68 310 3.0 8.0 0.00 0.75 0.51 71 999.0
20170526195104 68 322 3.0 7.0 0.00 0.75 0.51 69 999.0
20170526194558 69 333 3.0 6.0 0.00 0.75 0.51 68 999.0
20170526194059 69 301 3.0 8.0 0.00 0.75 0.51 68 999.0
20170526193557 69 321 3.0 8.0 0.00 0.75 0.51 71 999.0
20170526193059 68 300 5.0 8.0 0.00 0.75 0.51 73 999.0
20170526192602 67 294 3.0 8.0 0.00 0.75 0.51 75 999.0
20170526192100 67 274 1.0 6.0 0.00 0.75 0.51 77 999.0
20170526191558 67 176 0.0 5.0 0.00 0.75 0.51 77 999.0
20170526191100 67 231 2.0 3.0 0.00 0.79 0.51 76 999.0
20170526190559 67 184 1.0 9.0 0.00 0.79 0.51 75 999.0
20170526190058 68 206 5.0 9.0 0.00 0.79 0.51 72 999.0
20170526185601 69 195 6.0 9.0 0.00 0.79 0.51 70 999.0
20170526185101 69 250 3.0 8.0 0.00 0.79 0.51 69 999.0
20170526184600 69 279 2.0 8.0 0.00 0.79 0.51 70 999.0
20170526184105 68 318 3.0 7.0 0.00 0.79 0.51 72 999.0
20170526183601 68 294 3.0 7.0 0.00 0.79 0.51 73 999.0
20170526183105 67 303 3.0 8.0 0.00 0.79 0.51 72 999.0
20170526182601 67 276 3.0 8.0 0.00 0.79 0.51 72 999.0
20170526182153 67 266 3.0 7.0 0.00 0.79 0.51 71 999.0
20170526181559 68 255 4.0 7.0 0.00 0.79 0.51 69 998.2
20170526181058 69 335 2.0 6.0 0.00 0.79 0.51 69 998.0
20170526180558 69 328 5.0 10.0 0.00 0.79 0.51 68 998.0
20170526180058 69 314 5.0 10.0 0.00 0.79 0.51 69 998.0
20170526175600 68 289 5.0 8.0 0.00 0.79 0.51 71 998.0
20170526175158 68 263 5.0 8.0 0.00 0.79 0.51 72 998.0
20170526174603 67 275 2.0 6.0 0.00 0.79 0.51 75 998.0
20170526174106 66 287 1.0 6.0 0.00 0.79 0.51 79 998.0
20170526173559 66 295 2.0 6.0 0.00 0.79 0.51 83 998.0
20170526173152 65 301 2.0 8.0 0.00 0.79 0.51 87 998.8
20170526172556 64 317 0.0 8.0 0.00 0.79 0.51 85 999.0
20170526172104 64 262 1.0 6.0 0.00 0.83 0.51 87 999.0
20170526171557 64 197 1.0 6.0 0.00 0.83 0.51 84 999.0
20170526171100 64 203 1.0 3.0 0.00 0.83 0.51 81 999.0
20170526170603 65 236 1.0 6.0 0.00 0.83 0.51 78 999.0
20170526170100 65 205 1.0 6.0 0.00 0.83 0.51 80 998.3
20170526165555 65 249 0.0 3.0 0.00 0.83 0.51 79 998.0
20170526165058 64 242 2.0 6.0 0.00 0.83 0.51 84 998.0
20170526164604 63 253 0.0 3.0 0.00 0.83 0.51 95 998.8
20170526164101 62 199 2.0 6.0 0.00 0.87 0.51 92 999.0
20170526163556 61 297 0.0 6.0 0.00 0.87 0.51 100 999.0
20170526163103 61 276 0.0 6.0 0.00 0.87 0.51 100 999.0
20170526162555 60 265 1.0 6.0 0.00 0.87 0.51 100 999.0
20170526162104 60 266 0.0 3.0 0.00 0.87 0.51 100 999.0
20170526161556 60 286 1.0 7.0 0.00 0.87 0.51 97 999.0
20170526161103 60 269 1.0 7.0 0.00 0.87 0.51 99 999.0
20170526160557 59 206 0.0 3.0 0.00 0.87 0.51 100 999.0
20170526160100 59 150 0.0 3.0 0.00 0.87 0.51 100 998.4
20170526155602 58 289 1.0 6.0 0.00 0.91 0.51 100 998.0
20170526155056 58 264 2.0 6.0 0.00 0.91 0.51 100 998.0
20170526154556 58 277 0.0 3.0 0.00 0.91 0.51 100 998.0
20170526154101 59 248 1.0 5.0 0.00 0.91 0.51 100 998.0
20170526153601 59 187 2.0 5.0 0.00 0.91 0.51 99 998.0
20170526153101 60 276 1.0 5.0 0.00 0.91 0.51 100 998.0
20170526152553 60 330 1.0 6.0 0.00 0.91 0.51 100 998.0
20170526152056 59 298 0.0 6.0 0.00 0.91 0.51 100 998.0
20170526151601 59 295 0.0 0.0 0.00 0.91 0.51 100 998.0
20170526151103 59 295 0.0 3.0 0.04 0.91 0.51 100 998.0
20170526150600 58 298 1.0 3.0 0.04 0.91 0.51 100 998.0
20170526150059 58 319 1.0 3.0 0.04 0.91 0.51 100 998.0
20170526145600 58 289 1.0 3.0 0.04 0.91 0.51 100 998.0
20170526145157 58 301 0.0 2.0 0.04 0.91 0.51 100 998.0
20170526144604 58 308 0.0 0.0 0.04 0.91 0.51 100 998.0
20170526144059 58 308 0.0 0.0 0.04 0.91 0.51 100 998.0
20170526143558 58 308 0.0 3.0 0.04 0.91 0.51 100 998.0
20170526143102 58 1 1.0 3.0 0.04 0.91 0.51 100 998.0
20170526142555 58 23 1.0 3.0 0.04 0.91 0.51 100 998.0
20170526142106 59 330 0.0 3.0 0.04 0.91 0.51 100 998.0
20170526141557 59 306 0.0 3.0 0.04 0.91 0.51 100 998.0
20170526141059 59 297 0.0 5.0 0.00 0.87 0.47 100 998.0
20170526140559 59 295 0.0 2.0 0.00 0.87 0.47 100 998.0
20170526140056 59 285 0.0 6.0 0.00 0.87 0.47 100 998.0
20170526135600 59 294 1.0 6.0 0.00 0.87 0.47 100 998.0
20170526135054 58 329 1.0 5.0 0.00 0.87 0.47 100 998.0
20170526134559 58 336 0.0 3.0 0.00 0.87 0.47 100 998.0
20170526134104 58 298 0.0 3.0 0.00 0.87 0.47 100 998.0